Content
SEND FEEDBACK

Daily
Averages
Monthly
Summary
Netherlands

HAARLEM, NETHERLANDS


Home > Europe > Netherlands
Elevation: 62 feet     Latitude: 52 28N     Longitude: 004 35E

WEATHER
 
SELECT A DAY
Number of Records: 303,122;   Date Range: 7/1/96 - 8/27/14
 
SHARE

PRINT THIS DATA

[ ← Previous Day ]
WEATHER ALMANAC - MAY 1, 2013
[ Next Day → ]
[ °C ]   °F
Weather ElementAverageHighLow
Temperature49.7 °F60.8 °F (4:55 pm)39.2 °F (2:55 am)
Dewpoint37.1 °F41 °F (12:25 pm)32 °F (4:55 am)
Humidity61.9 %87 % (2:55 am)32 % (5:00 pm)
Barometer30.23 in30.31 in (2:00 am)30.15 in (3:55 pm)
Wind Speed11.8 mph18.4 mph (7:55 pm)
Weather ElementAverage
Visibility11.3 mi
Wind DirectionNE (47.8 °)

Weather ElementTotal
Precipitation---
Heating Degree Days15 (Base 65)
Averaged from 55 records on May 1, 2013
WEATHER CONDITIONS BREAKOUT
WIND DIRECTION BREAKOUT
WEATHER BY HOUR - MAY 1, 2013
[ °C ]   °F
Local TimeTemperatureDewpointHumidityBarometerVisibilityWind DirectionWind SpeedGust SpeedPrecipitationEventsConditions
12:55 AM44.6 °F37.4 °F76 %30.30 inNE (50°)13.8 mphClear
1:25 AM42.8 °F37.4 °F81 %30.30 inENE (60°)12.7 mphClear
1:55 AM42.8 °F35.6 °F76 %30.30 inENE (70°)10.4 mphClear
2:00 AM42.0 °F36.0 °F73 %30.31 in12.0 miENE (60°)8.9 mphPartly Cloudy
2:25 AM42.8 °F35.6 °F76 %30.30 inENE (60°)9.2 mphClear
2:55 AM39.2 °F35.6 °F87 %30.30 inENE (70°)8.1 mphClear
3:25 AM42.8 °F35.6 °F76 %30.30 inENE (60°)12.7 mphClear
3:55 AM41.0 °F33.8 °F76 %30.30 inENE (70°)11.5 mphClear
4:25 AM41.0 °F35.6 °F81 %30.30 inENE (70°)9.2 mphClear
4:55 AM39.2 °F32.0 °F75 %30.30 inENE (70°)9.2 mphClear
5:00 AM41.0 °F32.0 °F61 %30.31 in14.0 miENE (70°)8.9 mph
5:25 AM39.2 °F32.0 °F75 %30.30 inENE (70°)8.1 mphClear
5:55 AM39.2 °F32.0 °F75 %30.27 inENE (70°)10.4 mphClear
6:25 AM39.2 °F33.8 °F81 %30.27 inENE (70°)9.2 mphClear
6:55 AM41.0 °F33.8 °F76 %30.27 inENE (70°)11.5 mphClear
7:25 AM41.0 °F33.8 °F76 %30.27 inENE (70°)11.5 mphClear
7:55 AM42.8 °F35.6 °F76 %30.27 inENE (70°)13.8 mphClear
8:00 AM42.0 °F36.0 °F72 %30.30 in9.0 miENE (70°)13.4 mphPartly Cloudy
8:25 AM42.8 °F37.4 °F81 %30.27 inENE (60°)10.4 mphClear
8:55 AM44.6 °F37.4 °F76 %30.27 inENE (70°)11.5 mphClear
9:25 AM46.4 °F37.4 °F71 %30.27 inENE (60°)9.2 mphClear
9:55 AM48.2 °F37.4 °F66 %30.27 inNE (50°)10.4 mphClear
10:25 AM50.0 °F39.2 °F66 %30.27 inNE (50°)9.2 mphClear
10:55 AM50.0 °F39.2 °F66 %30.27 inNE (40°)10.4 mphClear
11:00 AM51.0 °F40.0 °F55 %30.27 in12.0 miNE (40°)8.9 mphPartly Cloudy
11:25 AM51.8 °F39.2 °F62 %30.24 inNE (40°)9.2 mphClear
11:55 AM53.6 °F39.2 °F58 %30.24 inNE (50°)8.1 mphClear
12:25 PM55.4 °F41.0 °F58 %30.24 inNE (50°)9.2 mphClear
12:55 PM57.2 °F41.0 °F55 %30.24 in6.2 miNE (50°)8.1 mphPartly Cloudy
1:25 PM59.0 °F35.6 °F42 %30.21 in6.2 miNE (40°)9.2 mphPartly Cloudy
1:55 PM59.0 °F41.0 °F51 %30.21 in6.2 miNNE (30°)11.5 mphPartly Cloudy
2:00 PM58.0 °F39.0 °F37 %30.22 in13.0 miNE (50°)11.2 mphPartly Cloudy
2:25 PM59.0 °F39.2 °F48 %30.18 in6.2 miNNE (30°)10.4 mphPartly Cloudy
2:55 PM59.0 °F41.0 °F51 %30.18 inNNE (30°)12.7 mphClear
3:25 PM59.0 °F39.2 °F48 %30.18 inNE (50°)12.7 mphClear
3:55 PM59.0 °F37.4 °F45 %30.15 inNNE (20°)12.7 mphClear
4:25 PM59.0 °F37.4 °F45 %30.15 inNE (50°)11.5 mphClear
4:55 PM60.8 °F39.2 °F45 %30.15 inNE (50°)12.7 mphClear
5:00 PM60.0 °F38.0 °F32 %30.18 in15.0 miNE (40°)13.4 mphScattered Clouds
5:25 PM60.8 °F39.2 °F45 %30.15 inNNE (20°)11.5 mphClear
5:55 PM59.0 °F39.2 °F48 %30.15 inNNE (30°)12.7 mphClear
6:25 PM59.0 °F37.4 °F45 %30.15 inNE (40°)13.8 mphClear
6:55 PM57.2 °F39.2 °F51 %30.15 inNNE (30°)15.0 mphClear
7:25 PM55.4 °F37.4 °F51 %30.15 inNNE (30°)17.3 mphClear
7:55 PM53.6 °F39.2 °F58 %30.15 inNNE (30°)18.4 mphClear
8:00 PM54.0 °F38.0 °F44 %30.17 in17.0 miNNE (30°)17.9 mphPartly Cloudy
8:25 PM53.6 °F35.6 °F51 %30.15 inNNE (20°)18.4 mphClear
8:55 PM51.8 °F37.4 °F58 %30.15 inNNE (20°)15.0 mphClear
9:25 PM51.8 °F37.4 °F58 %30.15 inNNE (20°)13.8 mphClear
9:55 PM50.0 °F37.4 °F62 %30.18 inNNE (20°)13.8 mphClear
10:25 PM50.0 °F37.4 °F62 %30.18 inNNE (30°)12.7 mphClear
10:55 PM48.2 °F35.6 °F62 %30.18 inNE (40°)15.0 mphClear
11:00 PM48.0 °F36.0 °F53 %30.19 in19.0 miNE (40°)15.7 mph
11:25 PM48.2 °F37.4 °F66 %30.18 inNE (40°)11.5 mphClear
11:55 PM48.2 °F35.6 °F62 %30.18 inNE (40°)12.7 mphClear
Hourly data recorded from EHAM, located miles away from Haarlem, Netherlands







STORIES FROM OUR PARTNERS